Regional Weather Roundup
Issued by NWS

Home | Current Version | Previous Version | Graphics & Text | Print | Product List | Glossary On
Versions: 1 2 3 4 5 6 7 8 9 10 11 12 13 14 15 16 17 18 19 20 21 22 23 24 25 26 27 28 29 30 31 32 33 34 35 36 37 38 39 40 41 42 43 44 45 46 47 48 49 50
000
ASUS43 KIND 300609
RWRIN

WEATHER ROUNDUP FOR INDIANA
NATIONAL WEATHER SERVICE INDIANAPOLIS IN
200 AM EDT MON MAR 30 2015

NOTE: "FAIR" INDICATES FEW OR NO CLOUDS BELOW 12,000 FEET WITH NO
SIGNIFICANT WEATHER AND/OR OBSTRUCTIONS TO VISIBILITY.

* - STATION DOES NOT REPORT WEATHER SUCH AS PRECIPITATION OR FOG.

+ - STATION NOT QUALITY CONTROLLED BY THE NATIONAL WEATHER SERVICE.
    USE DATA WITH CAUTION...ESPECIALLY DEWPOINT AND RELATIVE
    HUMIDITY OBSERVATIONS.

INZ001>003-010>013-019-020-300700-
NORTHWEST INDIANA

CITY           SKY/WX    TMP DP  RH WIND       PRES   REMARKS
GARY /AIRPORT/ PTCLDY    37  29  74 CALM      29.96R
KNOX *+          N/A     41  23  48 W6        29.94R
LA PORTE +     CLEAR     43  32  66 NW10G17   29.95R
6HR MIN TEMP:  43; 6HR MAX TEMP:  47;

MICHIGAN CITY+ PTCLDY    41  28  60 NW7       29.95R
MONTICELLO +   CLOUDY    40  34  80 W5        29.97R
6HR MIN TEMP:  39; 6HR MAX TEMP:  46;

RENSSELAER +   CLEAR     37  34  87 SW6       29.97R
VALPARAISO     MOCLDY    39  32  76 W5        29.96R
6HR MIN TEMP:  37; 6HR MAX TEMP:  47;


$$

LMZ046-743>745-300700-
SOUTHERN LAKE MICHIGAN

STATION/POSITION TIME  TEMP WIND        PRES
                       AIR  DIR/SP/G
                 (UTC) (F)  (DEG/KT/KT) (MB)
BURNS HARBOR     0600   41  280/  8/  9 1014.9R
MICHIGAN CITY    0600   40  270/ 14/ 15   N/A

$$

INZ004-005-014>016-021>024-300700-
NORTH CENTRAL INDIANA

CITY           SKY/WX    TMP DP  RH WIND       PRES   REMARKS
GOSHEN         CLOUDY    43  31  62 NW17G26   29.90R
6HR MIN TEMP:  41; 6HR MAX TEMP:  45; 6HR PCP: TRACE;

LOGANSPORT +   MOCLDY    37  34  87 W7        29.97R
PERU/GRISSOM   CLOUDY    41  36  82 W9        29.95R
6HR MIN TEMP:  40; 6HR MAX TEMP:  46;

ROCHESTER +    CLOUDY    45  34  65 NW9       29.95R
SOUTH BEND     PTCLDY    41  31  67 W12       29.93R
6HR MIN TEMP:  41; 6HR MAX TEMP:  45; 6HR PCP: TRACE;

WARSAW +       CLOUDY    43  32  65 W18G24    29.92R

$$

INZ006>009-017-018-025>027-300700-
NORTHEAST INDIANA

CITY           SKY/WX    TMP DP  RH WIND       PRES   REMARKS
ANGOLA *+      CLOUDY    43  30  61 W10       29.86R
AUBURN +       CLOUDY    43  32  65 W10       29.88S
FORT WAYNE     MOCLDY    42  34  73 W13       29.91R
6HR MIN TEMP:  39; 6HR MAX TEMP:  45; 6HR PCP: TRACE;

HUNTINGTON +   MOCLDY    43  32  64 W9        29.92R
6HR MIN TEMP:  40; 6HR MAX TEMP:  46;


$$

INZ028-029-035-036-043>045-051>053-300700-
WEST CENTRAL INDIANA

CITY           SKY/WX    TMP DP  RH WIND       PRES   REMARKS
CRAWFORDSVL +  MOCLDY    39  32  75 W6        30.01R
6HR MIN TEMP:  38; 6HR MAX TEMP:  46;

GREENCASTLE +  PTCLDY    45  36  70 W6        30.03R
LAFAYETTE      PTCLDY    41  32  70 W5        30.00R
6HR MIN TEMP:  40; 6HR MAX TEMP:  48;

TERRE HAUTE    MOCLDY    46  40  79 W7        30.04R
6HR MIN TEMP:  43; 6HR MAX TEMP:  48;


$$

INZ030>032-037>040-046>048-054>057-064-065-300700-
CENTRAL INDIANA

CITY           SKY/WX    TMP DP  RH WIND       PRES   REMARKS
CP ATTERBURY + CLOUDY    48  41  76 W9G16     30.00R
FRANKFORT +    CLEAR     41  33  74 W6        30.01R
6HR MIN TEMP:  38; 6HR MAX TEMP:  46;

GREENWOOD *+   PTCLDY    46  39  76 W9G22     30.00R
INDIANAPOLIS   PTCLDY    46  38  73 NW13      30.00R
6HR MIN TEMP:  43; 6HR MAX TEMP:  47;

-EAGLE CREEK   PTCLDY    45  37  73 NW14      30.00R
6HR MIN TEMP:  43; 6HR MAX TEMP:  48;

KOKOMO *+        N/A     41  34  75 W13       29.97R
6HR MIN TEMP:  39; 6HR MAX TEMP:  46;

MARION +       MOCLDY    42  35  77 NW14      29.96R
MT COMFORT *+  PTCLDY    45  32  61 NW14G22   29.99R
SHELBYVILLE    CLOUDY    49  41  74 W14       29.98R
6HR MIN TEMP:  42; 6HR MAX TEMP:  49; 6HR PCP: TRACE;

ZIONSVILLE +   MOCLDY    43  33  69 NW8       29.99R
6HR MIN TEMP:  41; 6HR MAX TEMP:  47;


$$

INZ033-034-041-042-049-050-058-059-300700-
EAST CENTRAL INDIANA

CITY           SKY/WX    TMP DP  RH WIND       PRES   REMARKS
MUNCIE         MOCLDY    45  38  76 W17G24    29.94R
6HR MIN TEMP:  42; 6HR MAX TEMP:  47;


$$

INZ060-061-067>069-081>083-085>088-300700-
SOUTHWEST INDIANA

CITY           SKY/WX    TMP DP  RH WIND       PRES   REMARKS
EVANSVILLE     CLOUDY    55  44  66 W10       30.07S
6HR MIN TEMP:  54; 6HR MAX TEMP:  58; 6HR PCP: TRACE;

HUNTINGBURG *+ MOCLDY    54  43  66 W18       30.05S
6HR MIN TEMP:  50; 6HR MAX TEMP:  57;

WASHINGTON +   MOCLDY    49  41  73 W12       30.04R
6HR MIN TEMP:  48; 6HR MAX TEMP:  52;


$$

INZ062-063-066-070>080-084-089>092-300700-
SOUTH CENTRAL AND SOUTHEAST INDIANA

CITY           SKY/WX    TMP DP  RH WIND       PRES   REMARKS
BEDFORD +      MOCLDY    50  41  71 W13G22    30.02S
BLOOMINGTON    PTCLDY    48  42  80 W9        30.02R
6HR MIN TEMP:  44; 6HR MAX TEMP:  49; 6HR PCP:  0.02;

NORTH VERNON + CLOUDY    48  43  81 SW13G21   29.99S
SEYMOUR +      MOCLDY    50  43  76 W13       30.00S

$$



USA.gov is the U.S. government's official web portal to all federal, state and local government web resources and services.